Location: Okie-Tex Star Party
(36.8978°N, 102.9520°W)
Time: 11:11:57
(UTC-05:00)

Daily predictions for brighter satellites

Satellite Brightness Start Highest point End
(mag) Time Altitude Azimuth Time Altitude Azimuth Time Altitude Azimuth
Cosmos 1892 Rocket 4.4 20:49:53 10° NNE 20:53:57 33° ENE 20:57:59 10° SE
Cosmos 1602 4.1 20:50:26 10° S 20:54:23 76° W 20:58:21 10° N
Resurs 1-3 3.6 20:50:20 10° SSE 20:54:41 68° ENE 20:59:03 10° N
Okean 2 4.4 20:52:04 10° NNE 20:55:40 28° ENE 20:59:14 10° SE
BREEZE-M DEB (TANK) 3.8 20:54:08 10° SSW 20:57:22 50° SE 21:06:41 10° NE
Cosmos 1455 Rocket 3.9 20:54:16 10° SSE 20:57:59 29° E 21:01:43 10° NNE
Cosmos 1809 Rocket 4.5 20:52:30 10° S 20:58:36 69° E 21:04:43 10° NNE
Cosmos 1025 Rocket 3.1 20:54:57 10° N 20:59:17 62° E 21:03:34 10° SSE
Spot 2 Rocket 3.8 20:58:33 10° S 21:03:38 73° WSW 21:08:44 10° NNW
NOSS 3-4 (A) 4.4 20:57:05 10° NNW 21:03:42 42° NE 21:10:38 10° ESE
NOSS 3-4 (C) 4.4 20:57:12 10° NNW 21:03:49 41° NE 21:10:44 10° ESE
Cosmos 2219 3.3 20:59:12 10° NNW 21:04:50 86° WSW 21:10:27 10° SSE
Cosmos 2239 Rocket 4.5 20:59:03 10° S 21:05:14 68° E 21:11:23 10° NNE
EO 1 Delta rocket 4.4 21:02:01 10° NNE 21:06:27 41° E 21:11:29 10° SSE
Cosmos 1570 Rocket 4.3 21:02:12 10° S 21:07:17 48° ESE 21:12:21 10° NNE
Resurs 01 Rocket 2.3 21:05:05 10° S 21:09:26 60° W 21:13:50 10° NNW
Cosmos 1315 Rocket 3.4 21:06:35 10° SSW 21:10:31 61° W 21:14:32 10° N
Lacrosse 5 rocket 3.4 21:09:04 10° N 21:10:36 12° NNE 21:12:08 10° NE
Tiangong 1 2.4 21:10:02 10° W 21:12:57 37° NNW 21:15:52 10° NE
Cosmos 1934 Rocket 4.0 21:10:43 10° S 21:16:43 65° E 21:22:51 10° NNE
Meteor 2-4 Rocket 3.8 21:11:24 10° N 21:17:16 82° E 21:23:12 10° S
USA 186 2.1 21:16:01 10° SSE 21:19:03 42° ENE 21:21:55 10° N
Cosmos 2278 3.8 21:14:49 10° S 21:20:17 52° ESE 21:25:48 10° NNE
Cosmos 1697 Rocket 4.0 21:17:10 10° SE 21:20:46 18° E 21:24:23 10° ENE
OTV 4 0.6 21:18:40 10° W 21:21:38 67° N 21:23:53 16° E
CZ-4B DEB 3.2 21:20:38 10° S 21:23:52 65° W 21:27:08 10° NNW
H-2A R/B 2.7 21:20:35 10° SSE 21:24:23 67° ENE 21:28:16 10° N
DELTA 2 R/B (1) 3.9 21:19:01 10° W 21:24:33 66° N 21:29:48 11° E
EP 1 4.2 21:22:34 10° SSW 21:25:04 51° ESE 21:27:31 10° NE
Cosmos 1939 Rocket 4.3 21:28:30 17° ESE 21:30:14 22° ENE 21:33:27 10° NNE
Delta 2 Rocket 4.0 21:25:18 10° W 21:30:56 76° S 21:34:44 18° ESE
Cosmos 1544 Rocket 3.7 21:27:08 10° S 21:31:29 79° W 21:35:54 10° N
NOSS 7 (E) 4.4 21:28:34 10° SSW 21:32:14 89° SE 21:35:37 10° NNE
Cosmos 2369 3.7 21:27:38 10° S 21:33:10 60° ESE 21:38:47 10° NNE
Meteor 1-23 Rocket 4.4 21:28:53 10° NNW 21:34:31 76° W 21:40:12 10° S
Iridium 4 Rocket 4.0 21:31:49 10° NNE 21:36:31 35° E 21:39:23 18° SE
CZ-2D R/B 3.5 21:35:38 10° S 21:39:27 69° W 21:43:19 10° NNW
OAO 2 Rocket 3.6 21:34:57 10° WSW 21:39:48 48° SSE 21:42:57 21° E
NOSS 7 (H) 4.2 21:39:05 10° SSW 21:42:20 60° ESE 21:45:36 10° NE
Cosmos 1980 Rocket 3.9 21:44:07 14° ENE 21:44:07 14° ENE 21:45:45 10° ENE
Hubble Space Telescope 2.4 21:43:06 10° WSW 21:46:18 21° S 21:47:42 18° SSE
ERS-1 Rocket 3.2 21:47:32 21° SE 21:50:38 51° ENE 21:55:31 10° N
Cosmos 1346 Rocket 2.9 21:50:06 10° NNW 21:54:02 72° W 21:57:27 14° S
SL-24 R/B - RUBIN 2 4.4 21:49:13 10° S 21:54:41 52° ESE 22:00:49 10° NE
RESURS DK-1 4.5 21:57:12 10° NNE 21:59:13 13° NE 21:59:18 13° NE
Cosmos 1605 Rocket 4.1 21:53:27 10° S 21:59:49 82° W 22:06:09 10° N
Cosmos 2061 Rocket 4.4 22:00:39 25° SE 22:03:42 40° E 22:09:29 10° NNE
Cosmos 2100 Rocket 4.3 22:01:59 22° SSE 22:05:49 46° E 22:11:45 10° NNE
YAOGAN 11 4.1 22:04:00 26° SSE 22:06:35 86° ENE 22:11:06 10° NNW
Cosmos 1500 3.1 22:09:17 56° ESE 22:09:32 57° E 22:13:15 10° NNE
ALOS 4.0 22:06:02 10° SSW 22:10:09 31° W 22:14:18 10° NW
Cosmos 2227 Rocket 2.1 22:05:32 10° NNW 22:11:14 89° WSW 22:14:15 29° SSE
Centaur D-1A AC-32 3.9 22:09:54 10° SW 22:11:41 15° SSW 22:11:41 15° SSW
Cosmos 468 Rocket 4.0 22:09:26 22° S 22:12:34 52° ESE 22:17:32 10° NNE
Cosmos 1814 Rocket 4.1 22:17:56 37° SSE 22:19:38 52° ESE 22:24:47 10° NNE
Milstar 3 Cent rocket 4.2 21:59:50 10° W 22:20:47 60° S 22:26:27 32° ESE
Cosmos 1656 3.6 22:15:34 10° SSW 22:21:13 86° ESE 22:26:49 10° NNE
Cosmos 2082 3.8 22:18:17 10° NNW 22:23:53 74° WSW 22:26:27 33° S
H-2A R/B 1.9 22:26:32 62° ENE 22:26:32 62° ENE 22:30:31 10° N
Cosmos 2297 Rocket 2.1 22:21:24 10° NNW 22:27:05 88° ENE 22:28:58 44° SSE
Lacrosse 5 3.1 22:25:38 10° NNW 22:29:57 27° NE 22:30:48 26° NE
USA 215 4.4 22:29:23 22° ENE 22:32:22 31° NNE 22:37:58 10° NNW
SPOT 5 3.0 22:31:47 57° ESE 22:32:23 62° ENE 22:37:16 10° N
deb Chang Zheng 4 3.5 22:28:58 10° NNE 22:33:27 89° W 22:34:29 53° SSW
Cosmos 1626 Rocket 4.3 22:29:29 10° NNW 22:33:46 50° W 22:35:31 31° SSW
Cosmos 1515 3.9 22:30:16 10° NNW 22:34:06 67° W 22:34:13 67° WSW
Cosmos 1975 4.3 22:31:27 10° SSW 22:35:16 38° W 22:39:08 10° N
BREEZE-M TANK 3.0 22:29:55 10° WNW 22:38:27 58° NNE 22:38:58 53° NE
Cosmos 858 Rocket 4.4 22:34:31 10° NNW 22:39:48 66° ENE 22:40:09 64° E
Cosmos 1743 3.9 22:41:33 36° NNE 22:41:33 36° NNE 22:43:59 10° N
Cosmos 2298 Rocket 3.9 22:35:24 10° NNW 22:40:45 84° ENE 22:41:28 67° SSE
YAOGAN 6 4.1 22:46:42 31° N 22:46:42 31° N 22:48:46 10° N
Cosmos 1459 Rocket 3.8 22:43:29 34° S 22:46:19 87° W 22:52:26 10° N
H-2A R/B 3.7 22:50:51 20° NE 22:50:51 20° NE 22:53:19 10° NNE
Tiangong 1 3.6 22:47:14 10° WNW 22:48:47 21° NNW 22:48:47 21° NNW
Lacrosse 5 rocket 2.3 22:46:40 10° NW 22:49:06 39° NW 22:49:06 39° NW
Cosmos 1461 4.0 22:46:43 10° NW 22:50:13 35° WSW 22:50:13 35° WSW
Envisat 3.7 22:51:27 38° SSW 22:52:57 50° W 22:57:54 10° NNW
Cosmos 2098 Rocket 4.2 22:55:16 59° ESE 22:55:42 60° E 23:01:56 10° NNE
MetOp-A 4.0 22:57:16 79° SSW 22:57:34 85° WSW 23:02:57 10° NNW
OTV 4 3.7 22:55:04 10° W 22:55:25 13° W 22:55:25 13° W
Cosmos 1937 Rocket 3.5 22:56:18 10° NNW 23:01:13 76° N 23:01:13 76° N
Cosmos 1697 Rocket 3.3 22:58:39 10° SW 23:04:12 56° WNW 23:09:45 10° NNE
BREEZE-M DEB (TANK) 4.1 23:04:06 10° NW 23:05:25 27° NNW 23:05:25 27° NNW
Cosmos 2150 Rocket 4.2 23:02:49 10° NNW 23:07:47 61° W 23:07:47 61° W
SPOT 1/Viking Rocket 3.8 23:08:45 64° N 23:08:45 64° N 23:13:13 10° N
Cosmos 1802 Rocket 4.2 23:05:45 39° SSW 23:08:11 69° W 23:14:37 10° N
NOAA 11 4.3 23:11:33 67° NNE 23:11:33 67° NNE 23:16:22 10° N
DELTA 2 R/B (1) 3.7 23:05:39 10° WNW 23:10:34 70° WNW 23:10:34 70° WNW
ASTEX 1 3.8 23:07:55 10° N 23:12:35 62° WNW 23:12:35 62° WNW
SL-08 R/B 4.4 23:15:23 83° SW 23:15:36 86° W 23:21:50 10° N
Terra 3.7 23:19:09 22° NNE 23:19:09 22° NNE 23:21:07 10° N
Cosmos 990 Rocket 4.5 23:13:42 10° NNW 23:17:52 57° NNW 23:17:52 57° NNW
Cosmos 1980 Rocket 2.5 23:25:46 61° WNW 23:25:50 62° WNW 23:31:29 10° NNE
Cosmos 2016 Rocket 4.5 23:28:04 48° WSW 23:29:08 55° W 23:35:11 10° N
ARGOS 3.7 23:31:03 56° NW 23:31:03 56° NW 23:35:23 10° NNW
CZ-3C R/B 4.5 23:42:48 10° WSW 23:50:35 16° SW 23:51:04 16° SW
